XML Sitemap

This is a XML Sitemap which is supposed to be processed by search engines which follow the XML Sitemap standard like Ask.com, Bing, Google and Yahoo.
It was generated using the WordPress content management system and the Google Sitemap Generator Plugin by Arne Brachhold.
You can find more information about XML sitemaps on sitemaps.org and Google's list of sitemap programs.

URLPriorityChange frequencyLast modified (GMT)
https://www.r1.lt/tissot-t035-428-11-031-00/80%Daily2018-08-31 23:17
https://www.r1.lt/sulciaspaude-adler-ad-4113-p-tipas-slow-juicer-purple-150-w-greiciu-skaicius-1/80%Daily2018-08-31 22:11
https://www.r1.lt/projector-viewsonic-pa502xp-dlp-xga-3500-ansi-220001-hdmi-hdcp/80%Daily2018-08-31 22:09
https://www.r1.lt/steelseries-apex-750-klaviatura-us-black/80%Daily2018-08-31 20:58
https://www.r1.lt/sunne-av-stand-mobile-s21/80%Daily2018-08-31 20:46
https://www.r1.lt/lexmark-c950x76g-waste-toner-bottle-30000-pages/80%Daily2018-08-31 19:23
https://www.r1.lt/qq-gs66j301y/80%Daily2018-08-31 17:47
https://www.r1.lt/adler-slow-juicer-ad-4119-type-electrical-black-yellowish-rose-200-w-extra-large-fruit-input-number-of-speeds-1/80%Daily2018-08-31 17:30
https://www.r1.lt/timberland-tbl-15512jsu-02/80%Daily2018-08-31 17:02
https://www.r1.lt/casio-g-shock-gwf-d1000-1er/80%Daily2018-08-31 16:10
https://www.r1.lt/timberland-tbl-15516js-03/80%Daily2018-08-31 13:47
https://www.r1.lt/asus-fx-series-gaming-fx504ge-gun-metal-15-6-tn-fhd-1920-x-1080-pixels-matt-intel-core-i7-i7-8750h-16-gb-ddr4-5400-rpm-ssd-256-gb-hybrid-hdd-1000-gb-hybrid-hard-drive-h-hdd-cache/80%Daily2018-08-31 13:16
https://www.r1.lt/lexmark-c734x20g-photoconductor-unit-20000-pages/80%Daily2018-08-31 12:26
https://www.r1.lt/airsoft-kjw-colt-1911-co2-sratasvydzio-pistoletas/80%Daily2018-08-31 12:06
https://www.r1.lt/casio-ltp-1283pd-4a2ef/80%Daily2018-08-31 11:37
https://www.r1.lt/steelseries-apex-m750-klaviatura-us-black/80%Daily2018-08-31 11:11
https://www.r1.lt/jacques-lemans-1-1844l/80%Daily2018-08-31 11:09
https://www.r1.lt/telforceone-rc-200-monster-4x4-r-c-automobilis/80%Daily2018-08-31 11:01
https://www.r1.lt/art-sport-band-with-heart-and-blood-pressure-monitor/80%Daily2018-08-31 10:31
https://www.r1.lt/airsoft-m9-bereta-sratasvydzio-pistoletas-su-duslintuvo-imitacija/80%Daily2018-08-31 10:26
https://www.r1.lt/hood-cata-podium-500-xgwh-wall-mounted-width-50-cm-560-m%c2%b3-h-white-glass-energy-efficiency-class-e-63-db/80%Daily2018-08-31 09:35
https://www.r1.lt/tissot-t035-428-11-051-00/80%Daily2018-08-31 08:07
https://www.r1.lt/jordan-kerr-pw106w-iprg-white/80%Daily2018-08-31 08:00
https://www.r1.lt/port-designs-muskoka-tablet-case-360-black-7-8-port-designs/80%Daily2018-08-31 07:50
https://www.r1.lt/avi-8-av-4050-04/80%Daily2018-08-31 06:51
https://www.r1.lt/airsoft-we-sw-mp9-sratasvydzio-pistoletas/80%Daily2018-08-31 06:15
https://www.r1.lt/romanson-rl4115q-lw-bk/80%Daily2018-08-31 06:08
https://www.r1.lt/airsoft-ak-47-sratasvydzio-automatas-medzio-imitacija/80%Daily2018-08-31 04:50
https://www.r1.lt/casio-ltp-1308pd-1bvef/80%Daily2018-08-31 04:26
https://www.r1.lt/jordan-kerr-w1136agx-ipg-black/80%Daily2018-08-31 02:53
https://www.r1.lt/perfect-b7249-g001/80%Daily2018-08-31 02:25
https://www.r1.lt/lenovo-thinkpad-x1-carbon-black-14-0-ips-touchscreen-full-hd-1920-x-1080-pixels-matt-intel-core-i5-i5-8350u-16-gb-ssd-512-gb-intel-uhd-no-optical-drive-windows-10-pro-8265-ac-bluet/80%Daily2018-08-31 01:46
https://www.r1.lt/bisset-noa-viii-bsbe93gisx03bx/80%Daily2018-08-31 00:24
https://www.r1.lt/timberland-tbl-15474jsbl-61/80%Daily2018-08-30 22:41
https://www.r1.lt/projector-optoma-dw330ust-wxga-3500-al-20-0001/80%Daily2018-08-30 22:02
https://www.r1.lt/timberland-tbl-13330xs-02/80%Daily2018-08-30 20:42
https://www.r1.lt/avi-8-av-4011-0e/80%Daily2018-08-30 20:31
https://www.r1.lt/dell-8-gb-ddr4-2666-mhz-pc-server-registered-yes-ecc-yes/80%Daily2018-08-30 20:17
https://www.r1.lt/lg-55uk6400plf-aeu-led-televizorius/80%Daily2018-08-30 19:10
https://www.r1.lt/timberland-tbl-15516jsu-02/80%Daily2018-08-30 18:53
https://www.r1.lt/epson-c13t03v14a-101-ecotank-bk-rasalas-black/80%Daily2018-08-30 18:47
https://www.r1.lt/airsoft-we-glock-23c-sratasvydzio-pistoletas/80%Daily2018-08-30 18:35
https://www.r1.lt/citizen-bj6501-10l/80%Daily2018-08-30 17:51
https://www.r1.lt/citizen-bi5000-52b/80%Daily2018-08-30 17:11
https://www.r1.lt/lg-49uk6200pla-aee-led-televizorius/80%Daily2018-08-30 17:10
https://www.r1.lt/inavi-6958a-zaislinis-rinkinys/80%Daily2018-08-30 16:20
https://www.r1.lt/jacques-lemans-1-1847c/80%Daily2018-08-30 15:39
https://www.r1.lt/polaroid-polaroid-zip-instant-photoprinter-blue/80%Daily2018-08-30 15:35
https://www.r1.lt/avi-8-av-4001-09/80%Daily2018-08-30 14:48
https://www.r1.lt/3mk-ferya-skincase-back-cover-apple-iphone-x-protective-foil-night-blue-matte/80%Daily2018-08-30 13:03
https://www.r1.lt/cata-campana-dio-600gwh-gartraukis/80%Daily2018-08-30 12:32
https://www.r1.lt/logilink-keyboard-bluetooth-mini-size-black-flat-mini-bluetooth-keyboard-standard-keys-80-bluetooth-v2-0-media-and-internet-hot-keys-4-range-10-m-supports-iphone-ipod-ipad/80%Daily2018-08-30 12:18
https://www.r1.lt/cata-hood-tf-5260-gwh-wall-mounted-width-60-cm-600-m%c2%b3-h-white-energy-efficiency-class-e-65-db/80%Daily2018-08-30 12:00
https://www.r1.lt/tefal-blue-2400-w-w/80%Daily2018-08-30 09:59
https://www.r1.lt/nokia-8110-4g-ds-mobilus-telefonas-yellow/80%Daily2018-08-30 09:49
https://www.r1.lt/jordan-kerr-b2239g-iprg-brown/80%Daily2018-08-30 08:43
https://www.r1.lt/airsoft-g36kv-sratasvydzio-automatas/80%Daily2018-08-30 04:03
https://www.r1.lt/perfect-b7249-rg002/80%Daily2018-08-30 03:38
https://www.r1.lt/timberland-tbl-15513jsu-53/80%Daily2018-08-30 03:35
https://www.r1.lt/airsoft-bls-0-23g-sratukai-1kg/80%Daily2018-08-30 03:24
https://www.r1.lt/sandisk-cruzer-glide-128gb-usb-3-0-software-protects-128-bit-atmintine/80%Daily2018-08-30 02:12
https://www.r1.lt/casio-g-shock-awg-m100a-1aer/80%Daily2018-08-30 00:48
https://www.r1.lt/timberland-tbl-15475js-07/80%Daily2018-08-29 23:38
https://www.r1.lt/gastroback-milk-frother-stainless-steel-electrical/80%Daily2018-08-29 23:16
https://www.r1.lt/lenovo-thinkpad-x1-carbon-black-14-0-ips-full-hd-1920-x-1080-pixels-matt-intel-core-i7-i7-8550u-8-gb-ssd-512-gb-intel-uhd-no-optical-drive-windows-10-pro-8265-ac-bluetooth-version-4-2/80%Daily2018-08-29 22:52
https://www.r1.lt/casio-aeq-200w-9avef/80%Daily2018-08-29 22:36
https://www.r1.lt/timberland-tbl-15514js-03/80%Daily2018-08-29 22:00
https://www.r1.lt/electrolux-oven-eea4545pox-71-l-black-stainless-steel-push-pull-height-59-4-cm-width-59-4-cm-built-in-oven/80%Daily2018-08-29 20:24
https://www.r1.lt/hp-external-ssd-p600-250gb-560-470-mb-s-usb-type-c/80%Daily2018-08-29 19:13
https://www.r1.lt/goobay-59821-quick-charge-powerbank-10-0-10000-mah/80%Daily2018-08-29 16:35
https://www.r1.lt/timberland-tbl-14645jsb-02/80%Daily2018-08-29 15:30
https://www.r1.lt/lenovo-330-15-5fhd-i3-7020u-4gb-128ssd-intelhd-dos-en-onyx-black-nesiojamas-kompiuteris/80%Daily2018-08-29 12:46
https://www.r1.lt/haier-a3fe742cgwj-saldytuvas/80%Daily2018-08-29 12:27
https://www.r1.lt/airsoft-core-carbine-replica-m4-m16-sratasvydzio-automatas/80%Daily2018-08-29 12:23
https://www.r1.lt/timberland-tbl-14645js-04a/80%Daily2018-08-29 12:16
https://www.r1.lt/perfect-b7326-rg001/80%Daily2018-08-29 12:08
https://www.r1.lt/airsoft-m4-m16-core-carbine-replica-sratasvydzio-automatas/80%Daily2018-08-29 11:54
https://www.r1.lt/airsoft-we-glock-17-gen4-sratasvydzio-pistoletas/80%Daily2018-08-29 11:33
https://www.r1.lt/sunne-av-stand-mobile-s22/80%Daily2018-08-29 11:20
https://www.r1.lt/timberland-tbl-15513js-02/80%Daily2018-08-29 09:03
https://www.r1.lt/timberland-tbl-15026js-03/80%Daily2018-08-29 07:24
https://www.r1.lt/casio-mcw-110h-1avef/80%Daily2018-08-29 07:19
https://www.r1.lt/haier-hmf-406b-saldytuvas/80%Daily2018-08-29 07:06
https://www.r1.lt/airsoft-kjw-colt-1911-greengas-sratasvydzio-pistoletas/80%Daily2018-08-29 05:31
https://www.r1.lt/jacques-lemans-york-1-1593-1g/80%Daily2018-08-29 05:16
https://www.r1.lt/jordan-kerr-i111l-ips-black/80%Daily2018-08-29 04:52
https://www.r1.lt/epson-c13t03v44a-ecotank-ye-rasalas-yellow/80%Daily2018-08-29 03:54
https://www.r1.lt/timberland-tbl-15512jsb-03/80%Daily2018-08-29 02:54
https://www.r1.lt/timberland-tbl-15516jsb-02/80%Daily2018-08-29 00:53
https://www.r1.lt/timberland-tbl-15473jlu-02/80%Daily2018-08-29 00:33
https://www.r1.lt/tissot-t099-407-16-447-00/80%Daily2018-08-28 21:57
https://www.r1.lt/jordan-kerr-p111-iprg-brown/80%Daily2018-08-28 21:37
https://www.r1.lt/airsoft-cyma-ak-74-sratasvydzio-automatas-medis/80%Daily2018-08-28 19:40
https://www.r1.lt/citizen-bi5000-52l/80%Daily2018-08-28 19:26
https://www.r1.lt/jordan-kerr-l115-iprg-black/80%Daily2018-08-28 19:23
https://www.r1.lt/timberland-tbl-15014js-20a/80%Daily2018-08-28 18:23
https://www.r1.lt/casio-a168wegc-5ef/80%Daily2018-08-28 15:11
https://www.r1.lt/haier-hsdf-546wm-saldiklis/80%Daily2018-08-28 13:21
https://www.r1.lt/perfect-b7249-s001/80%Daily2018-08-28 13:15
https://www.r1.lt/casio-mtp-e133l-1eef/80%Daily2018-08-28 12:52
https://www.r1.lt/airsoft-ultimate-tactical-fast-salmas-olive/80%Daily2018-08-28 11:12
https://www.r1.lt/prestigio-muze-g7-lte-mobilus-telefonas-black/80%Daily2018-08-28 10:40
https://www.r1.lt/jacques-lemans-1-1117-1wn/80%Daily2018-08-28 09:59
https://www.r1.lt/adata-ud330-32-gb-usb-3-1-black/80%Daily2018-08-28 09:34
https://www.r1.lt/timberland-tbl-15476jsu-03/80%Daily2018-08-28 09:04
https://www.r1.lt/inavi-8070e-r-b-valdomas-viksrinis-ekskavatorius/80%Daily2018-08-28 07:56
https://www.r1.lt/citizen-bi5002-06e/80%Daily2018-08-28 06:30
https://www.r1.lt/timberland-tbl-15029jlu-12/80%Daily2018-08-28 06:05
https://www.r1.lt/hp-m180n-laserjet-pro-mfp-spausdintuvas/80%Daily2018-08-28 05:23
https://www.r1.lt/inavi-661-301-konstruktoriaus-rinkinys/80%Daily2018-08-28 04:58
https://www.r1.lt/inavi-9995-r-b-valdomas-tankas/80%Daily2018-08-28 04:08
https://www.r1.lt/esperanza-ekm008-ranku-maisytuvas-300w-3l-brownie/80%Daily2018-08-28 00:47
https://www.r1.lt/airsoft-asg-greengas-dujos/80%Daily2018-08-28 00:24
https://www.r1.lt/timberland-tbl-15488js-02/80%Daily2018-08-27 22:48
https://www.r1.lt/airsoft-g36k-sratasvydzio-automatas/80%Daily2018-08-27 22:29
https://www.r1.lt/timberland-tbl-15474jsgy-61/80%Daily2018-08-27 21:35
https://www.r1.lt/tissot-t101-410-16-031-00/80%Daily2018-08-27 20:15
https://www.r1.lt/asus-rt-ac1200g-marsrutizatorius/80%Daily2018-08-27 19:19
https://www.r1.lt/airsoft-g36c-sratasvydzio-automatas/80%Daily2018-08-27 18:23
https://www.r1.lt/timberland-tbl-15476jsb-02/80%Daily2018-08-27 18:18
https://www.r1.lt/timberland-tbl-15128js-07/80%Daily2018-08-27 17:58
https://www.r1.lt/casio-g-shock-ga-810b-1a4er/80%Daily2018-08-27 17:18
https://www.r1.lt/casio-la670wemb-1ef/80%Daily2018-08-27 17:06
https://www.r1.lt/gartraukis-candy-cft610-3s/80%Daily2018-08-27 16:58
https://www.r1.lt/jordan-kerr-b2239g-ips-black/80%Daily2018-08-27 16:54
https://www.r1.lt/haier-hmf-406x-saldytuvas/80%Daily2018-08-27 13:36
https://www.r1.lt/airsoft-we-glock-17-custom-sratasvydzio-pistoletas/80%Daily2018-08-27 13:24
https://www.r1.lt/timberland-tbl-15129js-07/80%Daily2018-08-27 11:09
https://www.r1.lt/epson-c13t03v24a-101-ecotank-cy-rasalas-cyan/80%Daily2018-08-27 09:50
https://www.r1.lt/casio-g-shock-ga-1100-1a1er/80%Daily2018-08-27 08:57
https://www.r1.lt/airsoft-l96-sratasvydzio-snaiperis-green/80%Daily2018-08-27 08:05
https://www.r1.lt/airsoft-we-glock-19-custom-sratasvydzio-pistoletas/80%Daily2018-08-27 05:00
https://www.r1.lt/jacques-lemans-1-1844za/80%Daily2018-08-27 04:03
https://www.r1.lt/cloer-4951-kettle-electric-water-kettle-plastic-stainless-steel-white-2200-w-360-rotational-base-1-7-l/80%Daily2018-08-27 03:38
https://www.r1.lt/timberland-tbl-15488js-07/80%Daily2018-08-27 01:30
https://www.r1.lt/airsoft-ak-47-tactical-sratasvydzio-automatas/80%Daily2018-08-27 00:36
https://www.r1.lt/airsoft-we-glock-17-gen3-sratasvydzio-pistoletas-black/80%Daily2018-08-27 00:31
https://www.r1.lt/livestar-ldp100b-elektrinis-pianinas/80%Daily2018-08-26 23:35
https://www.r1.lt/epson-c13t03v34a101-ecotank-ma-rasalas-magenta/80%Daily2018-08-26 21:00
https://www.r1.lt/perfect-b7326-s001/80%Daily2018-08-26 20:17
https://www.r1.lt/timberland-tbl-15014jsu-13/80%Daily2018-08-26 19:22
https://www.r1.lt/citizen-eu6004-56l/80%Daily2018-08-26 16:29
https://www.r1.lt/airsoft-ultimate-tactical-fast-salmas-black/80%Daily2018-08-26 15:42
https://www.r1.lt/casio-mcw-100h-9a2vef/80%Daily2018-08-26 15:29
https://www.r1.lt/eta-hair-dryers-eta032090000-rosalia-foldable-handle-1200-w-purple/80%Daily2018-08-26 14:16
https://www.r1.lt/lenovo-thinkpad-x380-yoga-black-13-3-ips-touchscreen-full-hd-1920-x-1080-pixels-gloss-intel-core-i7-i7-8550u-8-gb-ssd-512-gb-intel-uhd-windows-10-pro-8265-ac-bluetooth-version-4-1/80%Daily2018-08-26 14:05
https://www.r1.lt/timberland-tbl-15514jsr-02/80%Daily2018-08-26 09:42
https://www.r1.lt/casio-aw-80d-7aves/80%Daily2018-08-26 07:42
https://www.r1.lt/timberland-tbl-15474jsgn-02/80%Daily2018-08-26 04:31
https://www.r1.lt/epson-t6732-spausdintuvo-rasalas-70ml-cyan/80%Daily2018-08-26 01:38
https://www.r1.lt/xiaomi-mi-band-3-ismanioji-apyranke-black/80%Daily2018-08-26 01:37
https://www.r1.lt/haier-hmf-406s-saldytuvas/80%Daily2018-08-26 00:55
https://www.r1.lt/perfect-b7249-s002/80%Daily2018-08-25 22:21
https://www.r1.lt/msi-gf63-8rc-057nl-15-5fhd-i7-8750h-8gb-1tb128gb-gtx1050-win10-nesiojamas-kompiuteris/80%Daily2018-08-25 21:49
https://www.r1.lt/jacques-lemans-1-1603h/80%Daily2018-08-25 21:10
https://www.r1.lt/airsoft-emerson-fast-salmas-tan/80%Daily2018-08-25 20:22
https://www.r1.lt/citizen-bi5000-52e/80%Daily2018-08-25 18:19
https://www.r1.lt/timberland-tbl-15473jlk-53/80%Daily2018-08-25 16:48
https://www.r1.lt/perfect-b7249-rg001/80%Daily2018-08-25 14:37
https://www.r1.lt/airsoft-kwc-pm-makarov-sratasvydzio-pistoletas/80%Daily2018-08-25 14:04
https://www.r1.lt/ty-gear-gilda-pliusinis-zaislas-rankine/80%Daily2018-08-22 11:43
https://www.r1.lt/pierre-cardin-pc902282f02/80%Daily2018-08-22 11:05
https://www.r1.lt/plauku-dziovintuvas-rowenta-cv3812-garantija-24-men-jonizavimo-funkcija-motoro-tipas-dc-2100-w-black-pink/80%Daily2018-08-22 05:41
https://www.r1.lt/pierre-cardin-pc902361f08/80%Daily2018-08-22 05:10
https://www.r1.lt/rubicon-rnad89sisx03bx/80%Daily2018-08-22 04:57
https://www.r1.lt/pierre-cardin-pc902352f06/80%Daily2018-08-22 04:55
https://www.r1.lt/orava-hot-airstyler-for-drying-and-styling-hair-kf-112-number-of-temperature-settings-2-styling-comb-600-w-black-white-purple/80%Daily2018-08-22 04:53
https://www.r1.lt/braun-electric-shaver-7893s-wet-use-rechargeable-charging-time-1-h-li-ion-network-battery-number-of-shaver-heads-blades-4-silver-black/80%Daily2018-08-22 04:28
https://www.r1.lt/samsung-galaxy-a6-a600-mobilus-telefonas-32gb-black-2/80%Daily2018-08-22 04:26
https://www.r1.lt/toshiba-49v5863dg-led-televizorius/80%Daily2018-08-22 01:43
https://www.r1.lt/juguetronica-mad-racers-spinner-r-c-automobilis/80%Daily2018-08-21 23:21
https://www.r1.lt/ty-gear-kiki-pliusinis-zaislas-rankine/80%Daily2018-08-21 23:19
https://www.r1.lt/orava-kettle-vk-3317-b-standard-plastic-black-2000-w-360-rotational-base-1-7-l/80%Daily2018-08-21 22:23
https://www.r1.lt/skalbimo-masina-su-dziovinimu-electrolux-ew8w261b/80%Daily2018-08-21 20:12
https://www.r1.lt/gastroback-vita-spin-fryer-black-2000-w-2-5-l/80%Daily2018-08-21 19:46
https://www.r1.lt/orava-kettle-vk-3717-standard-stainless-steel-stainless-steel-black-2000-w-360-rotational-base-1-7-l/80%Daily2018-08-21 18:52
https://www.r1.lt/arozzi-arena-gaming-desk-green/80%Daily2018-08-21 16:20
https://www.r1.lt/trust-22736-gxt783-pele-ir-kilimelis/80%Daily2018-08-21 15:28
https://www.r1.lt/reporter-99830-isorine-baterija-2600mah-blue/80%Daily2018-08-21 14:11
https://www.r1.lt/xiaomi-mi-band-2-ismanusis-laikrodis-black/80%Daily2018-08-21 13:31
https://www.r1.lt/pierre-cardin-pc902342f06/80%Daily2018-08-21 13:09
https://www.r1.lt/indesit-btw-d61053-eu-skalbimo-masina/80%Daily2018-08-21 12:59
https://www.r1.lt/tp-link-tl-sg1005d-sakotuvas-switch/80%Daily2018-08-21 12:11
https://www.r1.lt/transcend-ts8gusdu1-8gb-sdhc-uhs-i-c10-atminties-kortele/80%Daily2018-08-21 10:55
https://www.r1.lt/pierre-cardin-pc902342f05/80%Daily2018-08-21 10:31
https://www.r1.lt/orava-kettle-vk-3513-g-standard-plastic-white-green-1000-w-360-rotational-base-1-2-l/80%Daily2018-08-21 09:27
https://www.r1.lt/orava-kettle-vk-3513-p-standard-plastic-white-pink-1000-w-360-rotational-base-1-2-l/80%Daily2018-08-21 09:24
https://www.r1.lt/panasonic-es-el2a-a503-epiliatorius/80%Daily2018-08-21 09:18
https://www.r1.lt/juguetronica-robotron-programuojamas-robotas/80%Daily2018-08-21 08:06
https://www.r1.lt/dell-s2419h-24-monitorius/80%Daily2018-08-21 07:36
https://www.r1.lt/epson-ecotank-its-l4150-daugiafunkcinis-spausdintuvas-black/80%Daily2018-08-21 07:09
https://www.r1.lt/asus-tp412ua-ec056t-vivobook-14fhd-i3-7020u-4gb-256gbssd-intelhd-win10h-en-nesiojamas-kompiuteris/80%Daily2018-08-21 06:57
https://www.r1.lt/pierre-cardin-pc902332f04/80%Daily2018-08-21 06:34
https://www.r1.lt/casio-aw-80-7avef/80%Daily2018-08-21 06:34
https://www.r1.lt/bosch-tda2325-laidyne/80%Daily2018-08-21 06:08
https://www.r1.lt/pierre-cardin-pc902332f01/80%Daily2018-08-21 05:20
https://www.r1.lt/samsung-vl551-en-garso-sistema/80%Daily2018-08-21 04:52
https://www.r1.lt/huawei-color-band-a2-ismanioji-apyranke-red/80%Daily2018-08-21 03:59
https://www.r1.lt/orava-fruit-and-vegetable-juicer-os-111-type-centrifugal-stainless-steel-1000-w-extra-large-fruit-input-number-of-speeds-1-1200-rpm/80%Daily2018-08-21 03:34
https://www.r1.lt/inavi-cm557-81-zaisline-trasa/80%Daily2018-08-21 03:30
https://www.r1.lt/dell-xps-15-9575-silver-15-6-ips-touchscreen-full-hd-1920-x-1080-pixels-matt-intel-core-i7-i7-8705g-8-gb-ddr4-ssd-512-gb-amd-radeon-rx-vega-870-4-gb-windows-10-pro-802-11ac-keyboard-2/80%Daily2018-08-21 00:19
https://www.r1.lt/lenovo-gx30k69567-yoga-pele-golden/80%Daily2018-08-20 23:50
https://www.r1.lt/jordan-kerr-i112-iprg-black/80%Daily2018-08-20 22:00
https://www.r1.lt/beurer-ts19-sildoma-paklode/80%Daily2018-08-20 19:43
https://www.r1.lt/skalbimo-masina-su-dziovinimu-electrolux-ew7w361s/80%Daily2018-08-20 19:09
https://www.r1.lt/casio-mtf-111d-7aef/80%Daily2018-08-20 17:32
https://www.r1.lt/pierre-cardin-pc108091f02/80%Daily2018-08-20 17:05
https://www.r1.lt/dell-xps-15-9575-silver-15-6-ips-touchscreen-full-hd-1920-x-1080-pixels-matt-intel-core-i5-i5-8305g-8-gb-ddr4-ssd-256-gb-amd-radeon-rx-vega-870-4-gb-windows-10-pro-802-11ac-keyboard/80%Daily2018-08-20 13:52
https://www.r1.lt/jordan-kerr-fw010w-iprg-nylon/80%Daily2018-08-20 12:04
https://www.r1.lt/philips-hx9062-33-w3-premium-white-elektrinio-dantu-sepetelio-galvute-2vnt/80%Daily2018-08-20 11:28
https://www.r1.lt/juguetronica-spin-battle-elektroninis-zaislas/80%Daily2018-08-20 11:25
https://www.r1.lt/beko-csa365k30w-saldytuvas/80%Daily2018-08-20 10:13
https://www.r1.lt/pierre-cardin-pc902371f04/80%Daily2018-08-20 10:02
https://www.r1.lt/jordan-kerr-i112-iprg-red/80%Daily2018-08-20 07:54
https://www.r1.lt/orava-food-dehydrator-su-104-white-250-w-number-of-trays-5-temperature-control/80%Daily2018-08-20 07:52
https://www.r1.lt/lenovo-gx30k69572-yoga-pele/80%Daily2018-08-20 06:25
https://www.r1.lt/trust-21248-primo-15-6-kompiuterio-krepsys-black/80%Daily2018-08-20 05:10
https://www.r1.lt/samsung-vl350-en-garso-sistema/80%Daily2018-08-20 04:42
https://www.r1.lt/juguetronica-mad-racers-tracker-r-c-automobilis/80%Daily2018-08-20 00:33
https://www.r1.lt/lenovo-gx40q17225-b210-15-6-nesiojamo-kompiuterio-kuprine-black/80%Daily2018-08-19 23:47
https://www.r1.lt/epson-perfection-v850-skaitytuvas/80%Daily2018-08-19 23:42
https://www.r1.lt/asus-x507ma-ej056t-nesiojamas-kompiuteris-15-6fhd-n5000-4gb-128gbssd-inteluhd-win10-en-grey/80%Daily2018-08-19 22:28
https://www.r1.lt/pierre-cardin-pc902332f03/80%Daily2018-08-19 20:49
https://www.r1.lt/jvc-kd-x151-usb-mp3-magnetola/80%Daily2018-08-19 20:41
https://www.r1.lt/panasonic-er-gb52-s503-plauku-barzdos-kirpimo-masinele/80%Daily2018-08-19 17:21
https://www.r1.lt/netatmo-nwm01-ww-sienos-laikiklis/80%Daily2018-08-19 16:32
https://www.r1.lt/panasonic-er-gb86-k503-plauku-barzdos-kirpimo-masinele/80%Daily2018-08-19 14:36
https://www.r1.lt/orava-kitchen-scale-ev-8-a-maximum-weight-capacity-5-kg-graduation-1-g-display-type-lcd-white/80%Daily2018-08-19 13:58
https://www.r1.lt/reporter-99840-isorine-baterija-2600mah-green/80%Daily2018-08-19 11:17
https://www.r1.lt/lenovo-gx40m52025-nava-classic-15-6-nesiojamo-kompiuterio-kuprine-blue/80%Daily2018-08-19 11:05
https://www.r1.lt/jordan-kerr-i112-iprg-yelow/80%Daily2018-08-19 09:43
https://www.r1.lt/aeg-iae64843fb-indukcine-kaitlente/80%Daily2018-08-19 08:50
https://www.r1.lt/lenovo-gx30m39704-300-usb-pele/80%Daily2018-08-19 08:00
https://www.r1.lt/inavi-7665-masina-paspirtukas/80%Daily2018-08-19 07:21
https://www.r1.lt/deepcool-dq650-m-80-plus-gold-certified-650-w/80%Daily2018-08-19 06:09
https://www.r1.lt/reporter-99800-isorine-baterija-2600mah-pink/80%Daily2018-08-19 04:57
https://www.r1.lt/rubicon-rnad89bibx03bx/80%Daily2018-08-19 04:31
https://www.r1.lt/orava-food-dehydrator-su-102-white-230-w-number-of-trays-5-temperature-control/80%Daily2018-08-19 03:18
https://www.r1.lt/samsung-vl351-en-garso-sistema/80%Daily2018-08-19 02:17
https://www.r1.lt/juguetronica-robotai-boksininkai/80%Daily2018-08-19 01:07
https://www.r1.lt/epson-ecotank-its-l3070-daugiafunkcinis-spausdintuvas-black/80%Daily2018-08-18 23:42
https://www.r1.lt/deepcool-dq750-m-80-plus-gold-certified-750-w/80%Daily2018-08-18 21:50
https://www.r1.lt/pierre-cardin-pc902352f05/80%Daily2018-08-18 19:51
https://www.r1.lt/panasonic-rp-hf300e-k-ausines-black/80%Daily2018-08-18 18:11
https://www.r1.lt/philips-bhb862-00-plauku-garbanojimo-znyples/80%Daily2018-08-18 16:47
https://www.r1.lt/ty-gear-fantasia-pliusinis-zaislas-rankine/80%Daily2018-08-18 16:20
https://www.r1.lt/tefal-fv3970e0-laidyne/80%Daily2018-08-18 15:46
https://www.r1.lt/panasonic-rp-hf300e-p-ausines-pink/80%Daily2018-08-18 15:13
https://www.r1.lt/orava-hair-dryer-hd-421-2200-w-black-purple/80%Daily2018-08-18 14:36
https://www.r1.lt/pierre-cardin-pc902371f05/80%Daily2018-08-18 14:28
https://www.r1.lt/juguetronica-bubble-machine-elektroninis-zaislas/80%Daily2018-08-18 13:54
https://www.r1.lt/pierre-cardin-pc902352f01/80%Daily2018-08-18 12:31
https://www.r1.lt/juguetronica-robotic-arm-programuojamas-robotas/80%Daily2018-08-18 10:57
https://www.r1.lt/perfect-b7320-rg001/80%Daily2018-08-18 09:01
https://www.r1.lt/gastroback-advanced-scale-pro-46014-vacuum-sealer-fully-automatic-or-manual-black-120-w/80%Daily2018-08-18 08:41
https://www.r1.lt/braun-ccr-31-kartridzas/80%Daily2018-08-18 06:07
https://www.r1.lt/panasonic-rp-hf300e-w-ausines-white/80%Daily2018-08-18 05:17
https://www.r1.lt/pierre-cardin-pc902332f07/80%Daily2018-08-18 04:43
https://www.r1.lt/ty-gear-dotty-pliusinis-zaislas-rankine/80%Daily2018-08-18 03:05
https://www.r1.lt/rubicon-rnbd95visx03bx/80%Daily2018-08-17 23:55
https://www.r1.lt/orava-toaster-hr-104-white-plastic-650-w-number-of-slots-2-number-of-power-levels-6/80%Daily2018-08-17 23:17
https://www.r1.lt/pierre-cardin-pc902361f07/80%Daily2018-08-17 23:10
https://www.r1.lt/sigma-14mm-f1-8-dg-hsm-sony-e-mount-art/80%Daily2018-08-17 22:46
https://www.r1.lt/juguetronica-magic-air-levitation-shooter-elektroninis-zaislas/80%Daily2018-08-17 22:39
https://www.r1.lt/pierre-cardin-pc902332f06/80%Daily2018-08-17 22:14
https://www.r1.lt/reporter-99820-isorine-baterija-2600mah-grey/80%Daily2018-08-17 20:57
https://www.r1.lt/reporter-99810-isorine-baterija-2600mah-orange/80%Daily2018-08-17 19:51
https://www.r1.lt/trust-22697-yero-10-plansetinio-kompiuterio-deklas/80%Daily2018-08-17 19:40
https://www.r1.lt/kitchenaid-5kmt2204-eca-skrudintuvas-candy-apple/80%Daily2018-08-17 18:10
https://www.r1.lt/graef-black-128-w-w/80%Daily2018-08-17 17:54
https://www.r1.lt/trust-20400-arch-nesiojamo-kompiuterio-ausinimo-stovas/80%Daily2018-08-17 17:29
https://www.r1.lt/pierre-cardin-pc902371f03/80%Daily2018-08-17 17:19
https://www.r1.lt/pierre-cardin-pc902352f02/80%Daily2018-08-17 14:45
https://www.r1.lt/orava-kettle-vk-3520-ag-standard-plastic-white-green-2000-w-360-rotational-base-2-l/80%Daily2018-08-17 14:34
https://www.r1.lt/juguetronica-robotas-paukstis/80%Daily2018-08-17 11:57
https://www.r1.lt/pierre-cardin-pc902371f06/80%Daily2018-08-17 11:14
https://www.r1.lt/panasonic-er-sc40-k803-plauku-kirpimo-masinele/80%Daily2018-08-17 09:04
https://www.r1.lt/nescafe-dolce-gusto-espresso-honduras-kava-72g/80%Daily2018-08-17 08:57
https://www.r1.lt/orava-hair-dryer-hd-400-s-foldable-handle-1000-w-black-silver/80%Daily2018-08-17 08:19
https://www.r1.lt/juguetronica-hovercrash-game-r-c-automobilis-2-vnt/80%Daily2018-08-17 08:02
https://www.r1.lt/electrolux-eapc55eb-dulkiu-siurblys/80%Daily2018-08-17 07:31
https://www.r1.lt/trust-22861-primo-qi-10w-kroviklis-black/80%Daily2018-08-17 07:27
https://www.r1.lt/arozzi-arena-gaming-desk-pure-black/80%Daily2018-08-17 06:05
https://www.r1.lt/acer-aspire-3-a315-53g-black-15-6-hd-1366-x-768-pixels-matt-intel-core-i3-i3-7020u-4-gb-ddr4-hdd-1000-gb-5400-rpm-nvidia-geforce-mx130-gddr5-2-gb-windows-10-home-802-11-ac-a-b-g-n-b/80%Daily2018-08-17 05:42
https://www.r1.lt/juguetronica-mad-racers-snake-r-c-automobilis/80%Daily2018-08-17 03:36
https://www.r1.lt/orava-blender-rm-1550-black-1500-w-2-l-ice-crushing-30000-rpm-type-tabletop/80%Daily2018-08-17 02:37
https://www.r1.lt/nescafe-dolce-gusto-espresso-peru-kava-84g/80%Daily2018-08-17 02:02
https://www.r1.lt/jordan-kerr-i112-ips-black/80%Daily2018-08-16 23:46
https://www.r1.lt/electrolux-edb1730-laidyne/80%Daily2018-08-16 23:30
https://www.r1.lt/juguetronica-electro-labyrinth-elektroninis-zaislas/80%Daily2018-08-16 21:13
https://www.r1.lt/samsung-vl550-en-garso-sistema/80%Daily2018-08-16 21:06
https://www.r1.lt/acer-aspire-3-a315-51-black-15-6-hd-1366-x-768-pixels-matt-intel-core-i3-i3-6006u-4-gb-ddr4-hdd-500-gb-5400-rpm-intel-hd-no-optical-drive-windows-10-home-802-11-ac-a-b-g-n-bluetooth/80%Daily2018-08-16 20:39
https://www.r1.lt/pierre-cardin-pc902371f07/80%Daily2018-08-16 18:56
https://www.r1.lt/toshiba-43v5863dg-led-televizorius/80%Daily2018-08-16 18:44
https://www.r1.lt/karcher-1-324-100kar-k-4-premium-full-control-auksto-slegio-plovykla/80%Daily2018-08-16 17:48
https://www.r1.lt/orava-kitchen-scale-ev-2-maximum-weight-capacity-5-kg-graduation-1-g-display-type-lcd-white/80%Daily2018-08-16 16:04
https://www.r1.lt/dell-xps-15-9575-silver-15-6-ips-touchscreen-full-hd-1920-x-1080-pixels-matt-intel-core-i5-i5-8305g-8-gb-ddr4-ssd-256-gb-amd-radeon-rx-vega-870-4-gb-windows-10-pro-802-11ac-keyboard-2/80%Daily2018-08-16 15:58
https://www.r1.lt/orava-fruit-and-vegetable-juicer-os-150-type-slow-juicer-stainless-steel-black-150-w-extra-large-fruit-input-number-of-speeds-1-43-rpm/80%Daily2018-08-16 14:52
https://www.r1.lt/dell-xps-15-9575-silver-15-6-ips-touchscreen-full-hd-1920-x-1080-pixels-matt-intel-core-i7-i7-8705g-8-gb-ddr4-ssd-512-gb-amd-radeon-rx-vega-870-4-gb-windows-10-pro-802-11ac-keyboard/80%Daily2018-08-16 14:47
https://www.r1.lt/gastroback-vital-juicer-pro-black-stainless-steel-700-w-extra-large-fruit-input-number-of-speeds-2-17000-18500-rpm/80%Daily2018-08-16 13:37
https://www.r1.lt/karcher-1-673-123kar-k-2-compact-car-auksto-slegio-plovykla/80%Daily2018-08-16 13:23
https://www.r1.lt/yunmai-mini-smart-svarstykles-white/80%Daily2018-08-16 13:22
https://www.r1.lt/rubicon-rnad94gawx03bx/80%Daily2018-08-16 12:58
https://www.r1.lt/dell-90w-ac-adapter-4-5mm-barrel-eukit-dell/80%Daily2018-08-16 11:32
https://www.r1.lt/casio-mrw-210h-1a2vef/80%Daily2018-08-16 10:44
https://www.r1.lt/pierre-cardin-pc902342f04/80%Daily2018-08-16 10:42
https://www.r1.lt/orava-kettle-vk-3817-a-with-electronic-control-stainless-steel-stainless-steel-black-2000-w-360-rotational-base-1-7-l/80%Daily2018-08-16 10:17
https://www.r1.lt/pierre-cardin-pc902332f05/80%Daily2018-08-16 09:24
https://www.r1.lt/acer-aspire-1-a114-32-black-14-hd-1366-x-768-pixels-gloss-intel-pentium-n5000-4-gb-ddr4-storage-drive-capacity-64-gb-intel-uhd-no-optical-drive-windows-10-s-802-11-ac-a-b-g-n-bluetoot/80%Daily2018-08-16 09:02
https://www.r1.lt/lenovo-gx30p98213-legion-k200-klaviatura-nor/80%Daily2018-08-16 08:30
https://www.r1.lt/orava-travel-hair-dryer-hd-402-foldable-handle-1000-w-black/80%Daily2018-08-16 08:19
https://www.r1.lt/pierre-cardin-pc901862f05/80%Daily2018-08-16 04:11
https://www.r1.lt/trust-19756-eno-prot-6-deklas-elektroniniu-knygu-skaitytuvams/80%Daily2018-08-16 04:04
https://www.r1.lt/3mk-ferya-skincase-back-cover-apple-iphone-5s-protective-foil-pink-matte/80%Daily2018-08-16 03:58
https://www.r1.lt/lenovo-kb-mice-bo-300-wireless-kompiuterio-pele/80%Daily2018-08-16 03:56
https://www.r1.lt/orava-thermomether-mt-320-memory-function-measurement-time-1-s-white-blue/80%Daily2018-08-16 01:23
https://www.r1.lt/nescafe-dolce-gusto-lungo-columbia-kava-84g/80%Daily2018-08-15 22:55
https://www.r1.lt/electrolux-eer73db-dulkiu-siurblys-sluota/80%Daily2018-08-15 21:58
https://www.r1.lt/casio-ef-321d-1avef/80%Daily2018-08-15 21:14
https://www.r1.lt/trust-20577-oila-4-port-usb-2-0-usb-sakotuvas/80%Daily2018-08-15 20:42
https://www.r1.lt/dell-p2219h-22-monitorius/80%Daily2018-08-15 19:59
https://www.r1.lt/juguetronica-robotron-mini-visual-block-programuojamas-robotas/80%Daily2018-08-15 19:21
https://www.r1.lt/lenovo-essential-v330-14ikb-iron-gray-14-full-hd-1920-x-1080-pixels-intel-core-i5-i5-8250u-8-gb-ddr4-ssd-256-gb-intel-uhd-dos-802-11-ac-bluetooth-version-4-1-keyboard-language-nordic/80%Daily2018-08-15 17:57
https://www.r1.lt/external-hdd-adata-classic-hv300-2-5inch-2tb-usb3-1-4/80%Daily2018-08-15 17:54
https://www.r1.lt/trevi-mb-746-w-radijo-imtuvas-multi-band-ac-dc-black/80%Daily2018-08-15 17:43
https://www.r1.lt/pierre-cardin-pc902361f04/80%Daily2018-08-15 17:15
https://www.r1.lt/juguetronica-laikrodis/80%Daily2018-08-15 16:22
https://www.r1.lt/set-avtek-tt-board-90-pro-vivitek-dw282-st-avtek-wallmount-next-1200-akc/80%Daily2018-08-15 15:37
https://www.r1.lt/miele-wce330-wcs-skalbimo-masina/80%Daily2018-08-15 14:27
https://www.r1.lt/acme-vr301-uhd-veiksmo-kamera/80%Daily2018-08-15 13:45
https://www.r1.lt/electrolux-eus8green-dulkiu-siurblys/80%Daily2018-08-15 13:28
https://www.r1.lt/pierre-cardin-pc107592f07/80%Daily2018-08-15 13:26
https://www.r1.lt/pierre-cardin-pc902352f04u/80%Daily2018-08-15 13:07
https://www.r1.lt/juguetronica-lizard-robotas-driezas/80%Daily2018-08-15 12:44
https://www.r1.lt/fischertechnik-bt-racing-set-konstruktorius/80%Daily2018-08-11 02:51
https://www.r1.lt/external-hdd-g-drive-thunderbolt-3-3-5-4tb-usb-3-1-silver/80%Daily2018-08-11 00:37
https://www.r1.lt/gorenje-wall-mounted-hood-dvg800ax-electronic-width-80-cm-630-m%c2%b3-h-stainless-steel-black-glass-energy-efficiency-class-d-49-db-chimney/80%Daily2018-08-10 18:21
https://www.r1.lt/external-hdd-g-drive-usb-c-3-5-8tb-usb-3-1-silver/80%Daily2018-08-10 16:52
https://www.r1.lt/fischertechnik-robo-pro-software-konstruktorius/80%Daily2018-08-10 15:37
https://www.r1.lt/alpine-ute-200bt-automobilinis-grotuvas-su-bluetooth-usb-mp3/80%Daily2018-08-10 12:20
https://www.r1.lt/external-hdd-g-drive-ev-raw-2-5-1tb-usb-3-0-black/80%Daily2018-08-10 12:00
https://www.r1.lt/electrolux-estm9600-plaktuvas/80%Daily2018-08-10 11:47
https://www.r1.lt/external-hdd-g-drive-thunderbolt-3-3-5-12tb-usb-3-1-silver/80%Daily2018-08-10 09:45
https://www.r1.lt/external-hdd-g-drive-mobile-ssd-2-5-500gb-usb-3-1-gray/80%Daily2018-08-10 09:27
https://www.r1.lt/ariete-a630-ledu-gaminimo-aparatas/80%Daily2018-08-10 08:09
https://www.r1.lt/fischertechnik-racers-konstruktorius/80%Daily2018-08-10 07:13
https://www.r1.lt/xerox-b1025v_b-a3-mf-mono-office-digital-equip-p1524-4623/80%Daily2018-08-10 04:13
https://www.r1.lt/samsung-vs80n8076kc-sb-dulkiu-siurblys-sluota/80%Daily2018-08-10 03:37
https://www.r1.lt/fischertechnik-robo-tx-electropneumatic-konstruktorius/80%Daily2018-08-09 03:25
https://www.r1.lt/fischertechnik-accu-set-konstruktorius/80%Daily2018-08-09 02:15
https://www.r1.lt/elysee-heritage-chrono-11010/80%Daily2018-08-08 19:31
https://www.r1.lt/fischertechnik-solar-konstruktorius/80%Daily2018-08-08 14:56
https://www.r1.lt/g-speed-shuttle-thunderbolt-3-ev-series-bay-adapters-20tb-black/80%Daily2018-08-08 14:33
https://www.r1.lt/fischertechnik-dynamic-trampoline-konstruktorius/80%Daily2018-08-08 12:00
https://www.r1.lt/gorenje-built-in-hood-dkf-2600mwt-electronic-width-60-cm-305-m%c2%b3-h-stainless-steel-white-glass-energy-efficiency-class-d-49-db-telescopic/80%Daily2018-08-08 07:38
https://www.r1.lt/fischertechnik-pneumatic-power-konstruktorius/80%Daily2018-08-08 05:49
https://www.r1.lt/allview-x4-soul-infinity-z-black-5-7-ips-lcd-720-x-1440-pixels-cortex-a53-internal-ram-4-gb-32-gb-microsd-dual-sim-microsim-nanosim-3g-4g-main-camera-dual-135-mp-secondary-camera-8-mp/80%Daily2018-08-08 01:21
https://www.r1.lt/external-hdd-g-drive-thunderbolt-3-3-5-8tb-usb-3-1-silver/80%Daily2018-08-07 20:35
https://www.r1.lt/electrolux-esb5830-kokteiline/80%Daily2018-08-07 13:57
https://www.r1.lt/fischertechnik-trucks-konstruktorius/80%Daily2018-08-07 12:43
https://www.r1.lt/fischertechnik-dynamic-l-2-konstruktorius/80%Daily2018-08-07 11:41
https://www.r1.lt/bosch-oven-hba533bw0s-built-in-71-l-white-eco-clean-a-push-pull-buttons-height-60-cm-width-60-cm-integrated-timer-electric/80%Daily2018-08-07 11:01
https://www.r1.lt/fischertechnik-solar-power-konstruktorius/80%Daily2018-08-07 08:11
https://www.r1.lt/external-hdd-g-drive-mobile-2-5-1tb-usb-3-0-silver/80%Daily2018-08-07 05:33
https://www.r1.lt/fischertechnik-electronics-konstruktorius/80%Daily2018-08-07 03:41
https://www.r1.lt/wenger-attitude-chrono-01-1543-104/80%Daily2018-08-07 00:36
https://www.r1.lt/external-hdd-g-drive-ev-raw-ssd-2-5-500gb-usb-3-0-black/80%Daily2018-08-06 22:51
https://www.r1.lt/stadler-form-the-swinging-tower-fan-peter-p013-stand-fan-number-of-speeds-3-36-60-w-remote-control-oscillation-diameter-13-5-cm-black/80%Daily2018-08-06 22:10
https://www.r1.lt/wenger-attitude-seaforce-01-0641-125/80%Daily2018-08-06 21:00
https://www.r1.lt/zy338fd-zyle-vaisiu-dziovintuvas/80%Daily2018-08-06 20:49
https://www.r1.lt/elysee-heritage-chrono-11013/80%Daily2018-08-06 20:06
https://www.r1.lt/se5511-braun-epiliatorius-white-turque/80%Daily2018-08-06 18:24
https://www.r1.lt/daewoo-rgj-230r-2a-dulkiu-siurblys/80%Daily2018-08-06 17:46
https://www.r1.lt/wenger-attitude-seaforce-01-0641-126/80%Daily2018-08-06 17:35
https://www.r1.lt/beurer-ls06-bagazo-svarstykles/80%Daily2018-08-06 17:02
https://www.r1.lt/elysee-priamos-77022/80%Daily2018-08-06 14:13
https://www.r1.lt/jordan-kerr-pw747-ips-white/80%Daily2018-08-06 12:09
https://www.r1.lt/wenger-attitude-chrono-01-1543-108/80%Daily2018-08-06 12:01
https://www.r1.lt/wenger-city-classic-01-1441-124/80%Daily2018-08-06 11:15
https://www.r1.lt/external-hdd-g-raid-removable-thunderbolt-3-3-5-24tb-usb-3-1-silver/80%Daily2018-08-06 10:54
https://www.r1.lt/t10-microlab-garso-koloneles-2-1-56-w-rms/80%Daily2018-08-06 10:36
https://www.r1.lt/eta-fresa-food-dryer-eta530190000-black-stainless-steel-245-w-number-of-trays-5-temperature-control/80%Daily2018-08-06 07:13
https://www.r1.lt/bosch-oven-hba537bs0s-built-in-71-l-black-stainless-steel-eco-clean-a-push-pull-buttons-height-60-cm-width-60-cm-integrated-timer-electric/80%Daily2018-08-06 04:57
https://www.r1.lt/fischertechnik-txt-controller-konstruktorius/80%Daily2018-08-06 04:12
https://www.r1.lt/jordan-kerr-l113-iprg-blue/80%Daily2018-08-06 03:52
https://www.r1.lt/g-speed-shuttle-thunderbolt-3-ev-series-bay-adapters-24tb-black/80%Daily2018-08-06 03:40
https://www.r1.lt/fischertechnik-robo-tx-automation-robots-konstruktorius/80%Daily2018-08-06 02:28
https://www.r1.lt/elysee-minos-83826/80%Daily2018-08-06 02:20
https://www.r1.lt/external-hdd-g-drive-mobile-2-5-4tb-usb-3-0-silver/80%Daily2018-08-06 02:12
https://www.r1.lt/fischertechnik-tractors-konstruktorius/80%Daily2018-08-06 02:09
https://www.r1.lt/eta-vital-air-eta030290000-white-630-w-number-of-trays-9-temperature-control-integrated-timer/80%Daily2018-08-06 00:48
https://www.r1.lt/wenger-attitude-seaforce-01-0641-128/80%Daily2018-08-06 00:25
https://www.r1.lt/jordan-kerr-l113-iprg-grey/80%Daily2018-08-05 23:34
https://www.r1.lt/external-hdd-g-drive-thunderbolt-3-5-8tb-usb-3-0-silver/80%Daily2018-08-05 17:23
https://www.r1.lt/fischertechnik-cars-drives-konstruktorius/80%Daily2018-08-05 17:22
https://www.r1.lt/prestigio-gqpcdvrr527dl-roadrunner-527-video-registratorius/80%Daily2018-08-05 16:46
https://www.r1.lt/fischertechnik-mechanic-static-2-konstruktorius/80%Daily2018-08-05 15:17
https://www.r1.lt/fischertechnik-mini-bots-konstruktorius/80%Daily2018-08-05 14:25
https://www.r1.lt/fischertechnik-bt-smart-beginner-set-konstruktorius/80%Daily2018-08-05 13:48
https://www.r1.lt/electrolux-pd91-8ssm-dulkiu-siurblys/80%Daily2018-08-05 12:48
https://www.r1.lt/graef-sks-100-pjaustykle-white/80%Daily2018-08-05 09:44
https://www.r1.lt/wenger-city-classic-01-1441-123/80%Daily2018-08-05 09:38
https://www.r1.lt/hotpoint-hfc-3c26-indaplove/80%Daily2018-08-05 08:06
https://www.r1.lt/wenger-roadster-black-night-chrono-01-1843-102/80%Daily2018-08-05 06:29
https://www.r1.lt/wenger-roadster-black-night-chrono-01-1843-101/80%Daily2018-08-05 03:48
https://www.r1.lt/casio-ltp-1234l-1aef/80%Daily2018-08-05 03:06
https://www.r1.lt/fischertechnik-dynamic-xs-konstruktorius/80%Daily2018-08-05 00:18
https://www.r1.lt/logitech-c920-black-up-to-1920-x-1080-pixels-pixels-720p-1080p-usb-2-0-usb-port/80%Daily2018-08-04 23:49
https://www.r1.lt/fischertechnik-pneumatic-3-konstruktorius/80%Daily2018-08-04 19:32
https://www.r1.lt/acme-ps303-bluetooth-kolonele/80%Daily2018-08-04 17:46
https://www.r1.lt/acme-vr302-4k-veiksmo-kamera/80%Daily2018-08-04 16:57
https://www.r1.lt/canyon-bluetooth-garsiakalbis/80%Daily2018-08-04 16:50
https://www.r1.lt/fischertechnik-universal-starter-konstruktorius/80%Daily2018-08-04 15:26
https://www.r1.lt/adler-toaster-ad-33-white-plastic-750-w-number-of-slots-2-bun-warmer-included/80%Daily2018-08-04 11:34
https://www.r1.lt/elysee-heritage-chrono-11012/80%Daily2018-08-04 11:02
https://www.r1.lt/wenger-urban-classic-pvd-01-1021-108/80%Daily2018-08-04 10:58
https://www.r1.lt/fischertechnik-oeco-energy-konstruktorius/80%Daily2018-08-04 06:20
https://www.r1.lt/wenger-city-classic-01-1441-125/80%Daily2018-08-03 22:54
https://www.r1.lt/cata-vinoteca-vi-30017-x-vyno-saldytuvas/80%Daily2018-08-03 22:33
https://www.r1.lt/wenger-urban-metropolitan-01-1741-121/80%Daily2018-08-03 18:32
https://www.r1.lt/external-hdd-apacer-ac532-2-5-2tb-usb-3-1-shockproof-black/80%Daily2018-08-03 18:15
https://www.r1.lt/slazenger-thinktank-sl-9-1055-2-04/80%Daily2018-08-03 17:58
https://www.r1.lt/wenger-seaforce-chrono-01-0643-108/80%Daily2018-08-03 17:36
https://www.r1.lt/juguetronica-lasertronic-game-v3-sautuvai-2-vnt/80%Daily2018-08-03 16:10
https://www.r1.lt/wenger-wenger-urban-metropolitan-01-1741-119/80%Daily2018-08-03 13:31
https://www.r1.lt/wenger-seaforce-chrono-01-0643-114/80%Daily2018-08-03 12:28
https://www.r1.lt/beurer-bs69-veidrodis/80%Daily2018-08-03 03:22
https://www.r1.lt/wenger-urban-classic-01-1741-124/80%Daily2018-08-03 03:06
https://www.r1.lt/samsung-ue49nu7372uxxh-led-televizorius/80%Daily2018-08-03 01:06
https://www.r1.lt/acme-sw201-ismanusis-laikrodis/80%Daily2018-08-02 15:59
https://www.r1.lt/bg13-beurer-svarstykles/80%Daily2018-08-02 15:09
https://www.r1.lt/philips-brl140-00-skustuvas-kunui/80%Daily2018-08-02 13:22
https://www.r1.lt/elysee-lady-sport-11018/80%Daily2018-08-02 10:12
https://www.r1.lt/arcas-headlight-arc28-28-led-4-lighting-modes/80%Daily2018-08-02 09:10
https://www.r1.lt/wenger-roadster-black-night-chrono-01-1843-105/80%Daily2018-08-02 06:52
https://www.r1.lt/camry-kettle-cr-1252v-standard-stainless-steel-violet-2200-w-360-rotational-base-1-8-l/80%Daily2018-08-02 06:40
https://www.r1.lt/acme-sw301-ismanusis-laikrodis-su-gps/80%Daily2018-08-02 04:09
https://www.r1.lt/trevi-cmp-850-magnetola-su-cd-mp3-black/80%Daily2018-08-01 23:28
https://www.r1.lt/wenger-roadster-black-night-chrono-01-1843-107/80%Daily2018-08-01 22:41
https://www.r1.lt/wenger-urban-metropolitan-01-1741-120/80%Daily2018-08-01 16:58
https://www.r1.lt/mesko-kitchen-scales-ms-3155-maximum-weight-capacity-5-kg-graduation-1-g-white-strawberry/80%Daily2018-08-01 11:54
https://www.r1.lt/elysee-diana-28602/80%Daily2018-08-01 09:12
https://www.r1.lt/wenger-attitude-heritage-01-1541-109/80%Daily2018-08-01 06:07
https://www.r1.lt/jordan-kerr-i102l-ips/80%Daily2018-08-01 03:09
https://www.r1.lt/wenger-attitude-chrono-01-1543-105/80%Daily2018-08-01 02:59